Volver al catálogo

STARLINK-31970

ActivoComunicacionesVLEO
NORAD 59928·PAYLOAD·🇺🇸 United States

Lanzado Jun 1, 2024 desde Cape Canaveral Space Force Station

Loading…

Próximos Pases (próximas 24 horas)

TLE

ActualizadoSource: CelesTrak SupGP

Época: Sep 15, 2026, 03:03 UTC

1 59928C 24106G   26258.12756944  .00047046  00000+0  17037-2 0  2585
2 59928  43.0014 342.7313 0001458 258.0748 124.7339 15.27560573    13

Sigue STARLINK-31970 en tiempo real con AllMySat

Download on the App Store